TimeCDT,TemperatureF,Dew PointF,Humidity,Sea Level PressureIn,VisibilityMPH,Wind Direction,Wind SpeedMPH,Gust SpeedMPH,PrecipitationIn,Events,Conditions,WindDirDegrees,DateUTC
12:53 AM,53.1,48.9,86,29.95,10.0,North,4.6,-,N/A,,Clear,360,2013-07-21 05:53:00
1:53 AM,52.0,48.0,86,29.95,10.0,North,5.8,-,N/A,,Clear,360,2013-07-21 06:53:00
2:53 AM,50.0,48.0,93,29.94,10.0,North,3.5,-,N/A,,Clear,360,2013-07-21 07:53:00
3:53 AM,48.9,46.9,93,29.93,10.0,Calm,Calm,-,N/A,,Clear,0,2013-07-21 08:53:00
4:53 AM,48.0,46.9,96,29.92,10.0,Calm,Calm,-,N/A,,Clear,0,2013-07-21 09:53:00
5:53 AM,48.0,46.0,93,29.91,10.0,Calm,Calm,-,N/A,,Scattered Clouds,0,2013-07-21 10:53:00
6:53 AM,50.0,48.0,93,29.91,10.0,Calm,Calm,-,N/A,,Scattered Clouds,0,2013-07-21 11:53:00
7:53 AM,55.9,52.0,87,29.90,10.0,Calm,Calm,-,N/A,,Scattered Clouds,0,2013-07-21 12:53:00
8:53 AM,61.0,52.0,72,29.90,10.0,Calm,Calm,-,N/A,,Scattered Clouds,0,2013-07-21 13:53:00
9:53 AM,64.0,53.1,67,29.88,10.0,Calm,Calm,-,N/A,,Scattered Clouds,0,2013-07-21 14:53:00
10:53 AM,68.0,51.1,55,29.86,10.0,Calm,Calm,-,N/A,,Scattered Clouds,0,2013-07-21 15:53:00
11:53 AM,71.1,48.9,45,29.84,10.0,Calm,Calm,-,N/A,,Partly Cloudy,0,2013-07-21 16:53:00
12:53 PM,73.9,51.1,45,29.83,10.0,NNE,3.5,-,N/A,,Partly Cloudy,20,2013-07-21 17:53:00
1:53 PM,75.0,51.1,43,29.80,10.0,Variable,3.5,-,N/A,,Scattered Clouds,0,2013-07-21 18:53:00
2:53 PM,75.9,54.0,46,29.78,10.0,South,9.2,16.1,N/A,,Scattered Clouds,170,2013-07-21 19:53:00
3:53 PM,78.1,57.0,48,29.74,10.0,South,12.7,18.4,N/A,,Scattered Clouds,170,2013-07-21 20:53:00
4:53 PM,80.1,60.1,50,29.70,10.0,SSE,15.0,-,N/A,,Mostly Cloudy,160,2013-07-21 21:53:00
5:53 PM,80.1,61.0,52,29.68,10.0,SSE,15.0,20.7,N/A,,Mostly Cloudy,160,2013-07-21 22:53:00
6:53 PM,80.1,62.1,54,29.67,10.0,South,11.5,-,N/A,,Mostly Cloudy,180,2013-07-21 23:53:00
7:53 PM,77.0,63.0,62,29.65,10.0,South,9.2,-,N/A,,Overcast,190,2013-07-22 00:53:00
8:53 PM,75.0,66.0,73,29.62,10.0,South,6.9,-,0.00,Rain,Light Rain,170,2013-07-22 01:53:00
9:53 PM,73.0,66.9,81,29.61,10.0,SSE,5.8,-,0.02,,Mostly Cloudy,150,2013-07-22 02:53:00
10:24 PM,73.4,68.0,83,29.59,10.0,East,9.2,-,0.00,,Scattered Clouds,100,2013-07-22 03:24:00
10:34 PM,73.4,68.0,83,29.57,10.0,ESE,10.4,-,0.00,Thunderstorm,Thunderstorm,120,2013-07-22 03:34:00
10:53 PM,73.0,66.9,81,29.55,10.0,SE,12.7,-,0.00,Thunderstorm,Thunderstorm,140,2013-07-22 03:53:00
11:31 PM,69.8,68.0,94,29.62,1.8,SW,9.2,-,0.20,Rain-Thunderstorm,Thunderstorms and Rain,230,2013-07-22 04:31:00
11:41 PM,69.8,68.0,94,29.63,0.8,Variable,3.5,-,0.54,Rain,Rain,0,2013-07-22 04:41:00
11:48 PM,69.8,68.0,94,29.62,2.0,West,11.5,18.4,0.64,Rain,Rain,280,2013-07-22 04:48:00
11:53 PM,69.1,66.9,93,29.61,9.0,WNW,8.1,-,0.65,Rain,Rain,290,2013-07-22 04:53:00